[[{"header":{"parameterUnit":"m.s-1","parameterCategory":1,"la1":30.2991,"la2":30.254,"lo1":-89.0895,"lo2":-89.0444,"dy":0.0017,"dx":0.0017,"nx":28,"ny":28,"refTime":"2025-01-26T09:00:00:Z","depth":0,"parameterNumber":2,"parameterNumberName":"U-component_of_WINDS"},"data":[0,0,0,0,0,0,0,0,0,0,0,0,0,0,0,0,0,0,0,0,0,0,0,0,0,0,0,0,0,0,0,0,0,0,0,0,0,0,0,0,0,0,0,0,0,0,0,0,0,0,0,0,0,0,0,0,0,0,-3.1806,-3.1806,0,-3.1779,-3.1778,-3.1778,-3.1724,-3.1722,-3.1721,-3.172,-3.1694,-3.1694,-3.1695,0,0,0,0,0,0,0,0,0,0,0,0,0,-3.1814,-3.1814,-3.1806,-3.1806,-3.1806,-3.1779,-3.1778,-3.1778,-3.1724,-3.1722,-3.1721,-3.172,-3.1694,-3.1694,-3.1695,0,0,0,0,0,0,0,0,0,0,0,0,0,-3.1801,-3.1814,-3.1806,-3.1775,-3.1772,-3.1779,-3.1778,-3.1778,-3.1724,-3.1722,-3.1721,-3.1719,-3.1694,-3.1694,-3.1695,-3.173,0,0,-3.1696,-3.1696,0,0,0,0,0,0,0,0,-3.1802,-3.1801,-3.178,-3.1777,-3.1774,-3.1753,-3.1771,-3.1762,-3.1724,-3.1742,-3.172,-3.1718,-3.1715,-3.1714,-3.1712,-3.1729,-3.1728,-3.1696,-3.1696,-3.1697,-3.1697,0,0,0,0,0,0,0,-3.1803,-3.1802,-3.1795,-3.178,-3.1776,-3.1763,-3.176,-3.1769,-3.1738,-3.1741,-3.1737,-3.1734,-3.1713,-3.1712,-3.1711,-3.1727,-3.1696,-3.1696,-3.1697,-3.1697,-3.1771,-3.1773,0,0,0,0,0,0,-3.1808,-3.1803,-3.1796,-3.1795,-3.1784,-3.1764,-3.176,-3.1761,-3.1738,-3.1733,-3.1735,-3.1732,-3.1712,-3.1711,-3.171,-3.1749,-3.1697,-3.1697,-3.1697,-3.177,-3.1772,-3.1774,0,0,0,0,0,0,-3.1808,-3.1808,-3.1797,-3.1798,-3.1795,-3.1766,-3.1768,-3.1762,-3.176,-3.1734,-3.1728,-3.174,-3.171,-3.1709,-3.1725,-3.1747,-3.1697,-3.1698,-3.1768,-3.177,-3.1773,-3.1827,0,0,0,0,0,0,-3.1809,-3.1808,-3.1821,-3.1798,-3.1795,-3.1812,-3.1769,-3.1762,-3.1761,-3.1756,-3.1736,-3.1732,-3.1709,-3.1725,-3.1726,-3.1747,-3.1698,-3.1765,-3.1769,-3.1772,-3.1823,-3.1831,-3.1838,0,0,0,0,0,-3.1809,-3.1838,-3.1822,-3.1821,-3.181,-3.1814,-3.1812,-3.1785,-3.1763,-3.1775,-3.1759,-3.1732,-3.1745,-3.1727,-3.1727,-3.1749,-3.1764,-3.1768,-3.1772,-3.182,-3.183,-3.1838,0,0,0,0,0,0,-3.1864,-3.1834,-3.1816,-3.1838,-3.1829,-3.1805,-3.1819,-3.1797,-3.1794,-3.1789,-3.1756,-3.1752,-3.1773,-3.1763,-3.1743,-3.1782,-3.175,-3.1754,-3.1787,-3.1796,-3.1803,-3.1804,-3.1698,0,0,0,0,0,-3.1878,-3.1883,-3.1857,-3.1879,-3.1876,-3.1849,-3.1849,-3.1829,-3.1819,-3.1815,-3.1799,-3.179,-3.1792,-3.1794,-3.1794,-3.1823,-3.1817,-3.1838,-3.1845,-3.1852,-3.1855,-3.1868,-3.1877,-3.1786,-3.1786,-3.1786,0,0,-3.1908,-3.1893,-3.1898,-3.189,-3.188,-3.1886,-3.1846,-3.1854,-3.1858,-3.1816,-3.1829,-3.1818,-3.1806,-3.1828,-3.1837,-3.1821,-3.1879,-3.1857,-3.1862,-3.1861,-3.1873,-3.1882,-3.1889,-3.1789,-3.1788,-3.1788,0,0,-3.1965,-3.1955,-3.1971,-3.1963,-3.1949,-3.1931,-3.1936,-3.1915,-3.1905,-3.1919,-3.1887,-3.1893,-3.1897,-3.1889,-3.1886,-3.1943,-3.1918,-3.1944,-3.1982,-3.1995,-3.2002,-3.2008,-3.2027,-3.2034,-3.1948,-3.1948,-3.1948,0,-3.2004,-3.2011,-3.1983,-3.1993,-3.199,-3.1953,-3.1969,-3.1963,-3.195,-3.195,-3.1932,-3.1936,-3.1926,-3.1945,-3.1959,-3.1958,-3.1961,-3.1944,-3.2004,-3.2009,-3.2015,-3.2032,-3.2039,-3.1951,-3.1951,-3.195,-3.195,0,-3.2059,-3.2065,-3.208,-3.2068,-3.2068,-3.2081,-3.2055,-3.2058,-3.2039,-3.2024,-3.2038,-3.2024,-3.2021,-3.2025,-3.2006,-3.2042,-3.2032,-3.201,-3.1976,-3.2027,-3.2042,-3.2049,-3.1955,-3.1954,-3.1953,-3.1953,0,0,-3.2147,-3.212,-3.2126,-3.212,-3.2103,-3.2107,-3.212,-3.2116,-3.2119,-3.2113,-3.2121,-3.2127,-3.2106,-3.2102,-3.2083,-3.2096,-3.2139,-3.2072,-3.2071,-3.2083,-3.2176,-3.2191,-3.2199,-3.2124,-3.2125,-3.2126,-3.2176,0,-3.2199,-3.2217,-3.2192,-3.2216,-3.222,-3.2186,-3.2197,-3.2188,-3.2174,-3.2177,-3.2162,-3.2166,-3.2139,-3.2137,-3.2147,-3.2132,-3.2157,-3.2128,-3.2131,-3.2132,-3.2133,-3.2208,-3.2223,-3.2271,-3.2183,-3.2184,-3.2184,0,-3.226,-3.2256,-3.228,-3.2261,-3.2262,-3.2272,-3.2267,-3.227,-3.226,-3.2249,-3.2246,-3.2224,-3.2235,-3.2205,-3.222,-3.2201,-3.2202,-3.2194,-3.2196,-3.2193,-3.2159,-3.2205,-3.2286,-3.2292,-3.2194,-3.2193,-3.2193,0,-3.232,-3.232,-3.2334,-3.2331,-3.231,-3.2318,-3.231,-3.2298,-3.2297,-3.2294,-3.2293,-3.2291,-3.229,-3.2289,-3.2267,-3.2247,-3.2284,-3.2253,-3.2275,-3.2275,-3.2282,-3.2281,-3.2362,-3.2286,-3.2286,-3.2286,-3.2286,0,-3.2378,-3.2393,-3.236,-3.2369,-3.2386,-3.2358,-3.2376,-3.2365,-3.2355,-3.2361,-3.2332,-3.2339,-3.231,-3.2314,-3.2297,-3.2311,-3.2311,-3.2303,-3.2297,-3.2304,-3.2304,-3.2301,-3.2297,-3.2288,-3.2288,-3.2287,-3.2287,0,-3.2445,-3.2424,-3.2437,-3.2417,-3.2412,-3.2425,-3.2408,-3.2415,-3.2401,-3.2409,-3.2409,-3.2387,-3.2389,-3.2368,-3.2367,-3.2356,-3.2377,-3.2368,-3.238,-3.2376,-3.2399,-3.2396,-3.2478,-3.2487,-3.2409,-3.2409,-3.241,0,-3.2483,-3.2494,-3.2475,-3.2476,-3.247,-3.2473,-3.2472,-3.2447,-3.2448,-3.2438,-3.2446,-3.2447,-3.2445,-3.2452,-3.2435,-3.2435,-3.2423,-3.2452,-3.2423,-3.2429,-3.2421,-3.242,-3.242,-3.2457,-3.2458,-3.2459,-3.246,0,-3.255,-3.254,-3.2539,-3.2536,-3.2536,-3.2532,-3.2526,-3.253,-3.2502,-3.2505,-3.2507,-3.2506,-3.2505,-3.2506,-3.2502,-3.2494,-3.2472,-3.247,-3.2474,-3.2479,-3.2485,-3.248,-3.2394,-3.2467,-3.2467,-3.2466,-3.2466,-3.2465,-3.2602,-3.261,-3.2598,-3.2599,-3.2592,-3.2588,-3.2593,-3.258,-3.2581,-3.2577,-3.2564,-3.2568,-3.2559,-3.2551,-3.2546,-3.255,-3.2536,-3.2543,-3.2544,-3.2546,-3.2549,-3.2487,-3.2549,-3.2549,-3.2549,-3.2549,-3.2549,0,-3.2666,-3.2657,-3.2659,-3.2651,-3.2652,-3.2633,-3.2626,-3.2628,-3.2632,-3.2625,-3.2624,-3.2627,-3.2628,-3.2613,-3.2612,-3.2618,-3.2608,-3.2618,-3.2616,-3.2614,-3.2563,-3.2557,-3.2626,-3.2626,-3.2626,-3.2626,-3.2626,-3.2626,-3.2699,-3.2711,-3.27,-3.2709,-3.27,-3.2703,-3.2701,-3.2697,-3.2691,-3.2695,-3.2696,-3.2686,-3.2675,-3.2674,-3.2674,-3.2669,-3.2669,-3.2683,-3.2675,-3.2626,-3.2618,-3.2611,-3.2606,-3.2684,-3.2684,-3.2726,-3.2726,-3.2727]},{"header":{"parameterUnit":"m.s-1","parameterCategory":1,"la1":30.2991,"la2":30.254,"lo1":-89.0895,"lo2":-89.0444,"dy":0.0017,"dx":0.0017,"nx":28,"ny":28,"refTime":"2025-01-26T09:00:00:Z","depth":0,"parameterNumber":3,"parameterNumberName":"V-component_of_WINDS"},"data":[0,0,0,0,0,0,0,0,0,0,0,0,0,0,0,0,0,0,0,0,0,0,0,0,0,0,0,0,0,0,0,0,0,0,0,0,0,0,0,0,0,0,0,0,0,0,0,0,0,0,0,0,0,0,0,0,0,0,2.4577,2.4577,0,2.462,2.462,2.4621,2.4638,2.4638,2.4637,2.4637,2.4683,2.4684,2.4685,0,0,0,0,0,0,0,0,0,0,0,0,0,2.4512,2.4513,2.4577,2.4577,2.4578,2.462,2.462,2.4621,2.4638,2.4638,2.4637,2.4637,2.4682,2.4684,2.4685,0,0,0,0,0,0,0,0,0,0,0,0,0,2.4546,2.4514,2.4577,2.4591,2.4593,2.462,2.462,2.4621,2.4638,2.4638,2.4637,2.4637,2.4682,2.4684,2.4686,2.4701,0,0,2.4692,2.4692,0,0,0,0,0,0,0,0,2.4544,2.4549,2.4589,2.459,2.4592,2.4623,2.4614,2.4648,2.4638,2.4621,2.4637,2.4637,2.4663,2.4667,2.4675,2.4703,2.4705,2.4692,2.4693,2.4694,2.4694,0,0,0,0,0,0,0,2.4542,2.4547,2.4594,2.4589,2.4591,2.4597,2.4601,2.4621,2.4642,2.4622,2.4624,2.4628,2.4664,2.4673,2.4676,2.4706,2.4692,2.4693,2.4695,2.4695,2.4753,2.4753,0,0,0,0,0,0,2.4537,2.4545,2.4593,2.4595,2.4567,2.4598,2.4603,2.4613,2.4642,2.4646,2.4628,2.4629,2.467,2.4674,2.4678,2.47,2.4694,2.4696,2.4697,2.4752,2.4753,2.4753,0,0,0,0,0,0,2.4535,2.4541,2.4591,2.457,2.4577,2.4599,2.4611,2.4614,2.4623,2.4647,2.4651,2.4634,2.467,2.4675,2.4696,2.4702,2.4697,2.4698,2.4752,2.4752,2.4753,2.4743,0,0,0,0,0,0,2.4534,2.454,2.4546,2.457,2.4578,2.4607,2.4611,2.4615,2.4627,2.4628,2.4653,2.4657,2.467,2.4693,2.4698,2.4705,2.47,2.4751,2.4752,2.4753,2.4743,2.4744,2.4744,0,0,0,0,0,2.4531,2.4541,2.4546,2.4551,2.4585,2.4607,2.4612,2.4627,2.4627,2.4633,2.4649,2.4656,2.47,2.4695,2.4701,2.4708,2.4751,2.4752,2.4753,2.4743,2.4744,2.4744,0,0,0,0,0,0,2.4516,2.4544,2.455,2.4568,2.4585,2.461,2.4618,2.4626,2.4644,2.4644,2.4662,2.4668,2.4688,2.47,2.4693,2.4726,2.4726,2.4728,2.4717,2.4718,2.4718,2.4715,2.4701,0,0,0,0,0,2.4515,2.453,2.4554,2.4567,2.4576,2.4596,2.4606,2.4616,2.4635,2.4642,2.4659,2.4677,2.4696,2.4707,2.4725,2.4745,2.4752,2.4753,2.4754,2.4754,2.4755,2.4769,2.4771,2.4755,2.4755,2.4755,0,0,2.4512,2.453,2.4538,2.4565,2.4579,2.4596,2.4601,2.4618,2.4631,2.4645,2.4666,2.4679,2.4701,2.4722,2.4732,2.4733,2.4761,2.4755,2.4754,2.4756,2.477,2.4772,2.4773,2.4756,2.4756,2.4756,0,0,2.4516,2.453,2.4544,2.4559,2.4581,2.4595,2.4598,2.4622,2.4632,2.4653,2.4665,2.4681,2.4711,2.4727,2.4739,2.4753,2.4761,2.4758,2.4759,2.4773,2.4774,2.4775,2.4782,2.4783,2.4759,2.4759,2.4759,0,2.451,2.4535,2.455,2.4567,2.4579,2.4593,2.4609,2.4622,2.4649,2.4658,2.4659,2.4699,2.4715,2.4741,2.4744,2.4753,2.4759,2.4755,2.4772,2.4774,2.4775,2.4782,2.4784,2.4759,2.4759,2.4759,2.4759,0,2.4527,2.4544,2.4553,2.4579,2.4593,2.4609,2.4628,2.464,2.465,2.4664,2.4687,2.4706,2.473,2.4737,2.4746,2.4765,2.4765,2.4769,2.4769,2.4776,2.4782,2.4785,2.4758,2.4759,2.4759,2.4759,0,0,2.4521,2.4558,2.4561,2.4574,2.4601,2.4615,2.4632,2.4655,2.4666,2.4685,2.4702,2.4728,2.4733,2.4747,2.4758,2.477,2.4781,2.4772,2.4773,2.4775,2.4806,2.4804,2.4807,2.4787,2.4787,2.4788,2.4805,0,2.453,2.4561,2.4577,2.4602,2.4619,2.4634,2.465,2.4669,2.4683,2.47,2.4716,2.4736,2.4739,2.4748,2.476,2.4777,2.4788,2.4776,2.4804,2.4804,2.4799,2.481,2.4807,2.4822,2.4808,2.4808,2.4808,0,2.4543,2.4563,2.459,2.4617,2.4625,2.4638,2.4662,2.4678,2.4701,2.4711,2.4728,2.4739,2.476,2.4759,2.4789,2.4781,2.4793,2.4804,2.4805,2.4809,2.4807,2.4815,2.4827,2.483,2.4812,2.4812,2.4811,0,2.4538,2.4571,2.4592,2.4603,2.4635,2.4644,2.4658,2.4681,2.4695,2.4716,2.4726,2.4749,2.4762,2.478,2.4799,2.4796,2.4828,2.4828,2.4838,2.4837,2.4844,2.4843,2.486,2.485,2.485,2.485,2.485,0,2.4546,2.4563,2.4591,2.4604,2.4623,2.4642,2.4661,2.4676,2.4697,2.4714,2.4729,2.4745,2.4768,2.4787,2.4802,2.4826,2.4831,2.4841,2.4845,2.484,2.4839,2.4849,2.4849,2.4851,2.485,2.485,2.485,0,2.4544,2.4563,2.4587,2.4616,2.4624,2.4637,2.4663,2.4677,2.4693,2.4715,2.4721,2.4746,2.477,2.479,2.4821,2.4832,2.4857,2.4861,2.4849,2.4852,2.4861,2.4861,2.4885,2.4891,2.4876,2.4876,2.4876,0,2.4548,2.4561,2.4592,2.4605,2.4618,2.4638,2.4653,2.4673,2.4688,2.4717,2.4728,2.4753,2.4775,2.4813,2.4834,2.4859,2.4865,2.4872,2.4869,2.4865,2.4867,2.4867,2.4869,2.4872,2.4872,2.4872,2.4872,0,2.4554,2.4563,2.4583,2.4608,2.4625,2.4645,2.4666,2.4676,2.47,2.4717,2.4742,2.4759,2.4792,2.4818,2.4845,2.4861,2.4872,2.4873,2.4877,2.4873,2.4867,2.4872,2.4852,2.4873,2.4873,2.4872,2.4872,2.4872,2.4556,2.4569,2.4594,2.4616,2.4635,2.4654,2.467,2.4688,2.4709,2.4738,2.4749,2.4775,2.4801,2.4839,2.4855,2.4877,2.4879,2.4884,2.4885,2.4887,2.4887,2.4863,2.4882,2.4882,2.4882,2.4882,2.4882,0,2.4564,2.4581,2.4602,2.4631,2.465,2.4658,2.4682,2.4698,2.4721,2.4743,2.4765,2.4795,2.4821,2.4846,2.4873,2.4886,2.4892,2.4893,2.4893,2.4897,2.4883,2.4878,2.4888,2.4888,2.4888,2.4888,2.4888,2.4888,2.457,2.4594,2.4607,2.4641,2.4658,2.4684,2.4698,2.4717,2.4735,2.4769,2.4791,2.4806,2.4831,2.4861,2.4886,2.4892,2.4902,2.4902,2.4911,2.4898,2.4897,2.4896,2.4891,2.4904,2.4904,2.4922,2.4922,2.4923]}]]